Regional Weather Roundup
Issued by NWS Jackson, KY

Home | Current Version | Previous Version | Graphics & Text | Print | Product List | Glossary On
Versions: 1 2 3 4 5 6 7 8 9 10 11 12 13 14 15 16 17 18 19 20 21 22 23 24 25 26 27
000
ASUS43 KJKL 010010
RWRJKL

EAST KENTUCKY HOURLY WEATHER ROUNDUP
NATIONAL WEATHER SERVICE JACKSON KY
800 PM EDT FRI SEP 30 2016

NOTE: "FAIR" INDICATES FEW OR NO CLOUDS BELOW 12,000 FEET WITH
NO SIGNIFICANT WEATHER AND/OR OBSTRUCTIONS TO VISIBILITY.

* THESE REPORTS ARE NOT UNDER NWS QUALITY CONTROL AND MAY NOT
  REPORT WEATHER SUCH AS PRECIPITATION AND FOG.

KYZ079-080-083-085-087-088-110-112-115-119-120-010100
...EASTERN KENTUCKY...

CITY           SKY/WX    TMP DP  RH WIND       PRES   REMARKS
JACKSON        CLEAR     60  47  61 CALM      30.05R
6HR MIN TEMP:  59; 6HR MAX TEMP:  68;

LONDON         CLOUDY    60  50  69 W5        30.04S
6HR MIN TEMP:  56; 6HR MAX TEMP:  66;

SOMERSET*      CLOUDY    55  52  88 SW8       30.06S
MONTICELLO*    CLOUDY    58  53  84 VRB6      30.06F
6HR MIN TEMP:  58; 6HR MAX TEMP:  66;

WILLIAMSBURG*  PTCLDY    57  54  88 CALM      30.05S
MIDDLESBORO*   CLEAR     58  53  83 CALM      30.06R
6HR MIN TEMP:  58; 6HR MAX TEMP:  69;

HARLAN APT*    CLEAR     57  50  77 CALM      30.06R
PIKE CO APT*     N/A     59  54  83 CALM      30.06R
MOREHEAD APT*  CLEAR     57  52  82 CALM      30.05S
ASHLAND*       PTCLDY    61  55  82 CALM      30.02R
$$

KYZ035-036-041-042-044-050-067-078-099-010100
...CENTRAL KENTUCKY...

CITY           SKY/WX    TMP DP  RH WIND       PRES   REMARKS
MT STERLING*   PTCLDY    55  50  82 CALM      30.05R
FLEMING/MASON* MOCLDY    60  52  74 E3        30.04S
DANVILLE*      PTCLDY    54  52  94 CALM      30.05S
LEXINGTON      LGT RAIN  57  52  83 SE3       30.02F
6HR MIN TEMP:  57; 6HR MAX TEMP:  65; 6HR PCP: TRACE;

FRANKFORT      CLOUDY    59  52  77 W3        30.01S
6HR MIN TEMP:  59; 6HR MAX TEMP:  65;

LOUISVILLE     MOCLDY    58  55  90 E6        30.01F
6HR MIN TEMP:  58; 6HR MAX TEMP:  64; 6HR PCP:  0.02;

LEBANON*         N/A     57  54  88 SE6       30.03S
GLASGOW*       MOCLDY    58  58 100 S3        30.01F
BOWLING GREEN  PTCLDY    61  57  87 S5        30.00F
6HR MIN TEMP:  61; 6HR MAX TEMP:  65; 6HR PCP:  0.03;

$$

KYZ091>093-OHZ055-061-077-WVZ005-015-034-035-042-010100
...SOUTHERN OHIO/WEST VIRGINIA...

CITY           SKY/WX    TMP DP  RH WIND       PRES   REMARKS
COVINGTON      MOCLDY    59  53  80 SW5       30.01S
COLUMBUS       CLOUDY    63  63 100 NE5       30.01S
DAYTON         MOCLDY    61  59  93 SE6       30.02S
WILMINGTON     PTCLDY    57  56  96 S3        30.02R
HUNTINGTON     MOCLDY    59  55  87 E3        30.03R
CHARLESTON     MOCLDY    62  57  83 CALM      30.04S
PINEVILLE*     CLOUDY    60  56  86 MISG      30.10S
BECKLEY        CLOUDY    58  55  90 W6        30.08R
BLUEFIELD      CLOUDY    57  54  89 NW5       30.08R
LOGAN CO APT*  CLOUDY    61  57  88 CALM      30.05S
$$

VAZ002-007-008-TNZ017-027-036-066-071-010100
...SOUTHWEST VIRGINIA/EAST TENNESSEE...

CITY           SKY/WX    TMP DP  RH WIND       PRES   REMARKS
WISE*          MOCLDY    57  45  62 CALM      30.09R
JONESVILLE*      N/A     59  50  72 CALM      30.07S
ABINGDON*      CLOUDY    61  58  90 CALM      30.07R
BRISTOL        MOCLDY    65  50  58 W3        30.05R
MORRISTOWN*    CLEAR     66  45  45 W3        30.03S
SEVIERVILLE*   CLEAR     63  45  51 CALM      30.04R
KNOXVILLE      PTCLDY    63  45  51 SW6       30.03S
OAK RIDGE      PTCLDY    64  47  53 CALM      30.05S
CROSSVILLE     MOCLDY    58  50  75 CALM      30.07S
NASHVILLE      MOCLDY    60  58  92 S3        30.04F
$$

...KEY TO REMARKS...
VSB - VISIBILITY IN MILES
WCI - WIND CHILL INDEX
HX  - HEAT INDEX

$$




USA.gov is the U.S. government's official web portal to all federal, state and local government web resources and services.